787  
ASUS46 KPDT 231304  
RWRPDT  
PENDLETON REGIONAL WEATHER ROUNDUP  
NATIONAL WEATHER SERVICE PENDLETON OREGON  
600 AM PDT SAT JUL 23 2016  
 
NOTE: FAIR INDICATES FEW OR NO CLOUDS BELOW 12,000 FEET WITH NO  
SIGNIFICANT WEATHER AND/OR S TO VISIBILITY
.  
 
# INDICATES UNOFFICIAL STATION AND DATA  
 
WAZ520-231410-  
EAST SLOPES OF WASHINGTON CASCADES  
 
CITY SKY/WX TMP DP RH WIND PRES REMARKS
 
#CLE ELUM HS N/A 55 47 74 W2 30.14S  
#CLE ELUM 2NW N/A 54 46 74 W1 N/A  
#GLENWOOD N/A 38 37 96 CALM 30.16R  
#MANASTASH CYN N/A 44 39 82 CALM 30.16S  
#NELSON 3SW N/A 53 45 74 CALM 30.32R  
#NILE N/A 53 46 77 CALM 29.41S  
#RONALD 2NW N/A 53 N/A N/A E1 30.25S  
#TEANAWAY 4NE N/A 51 47 86 CALM N/A  
#TROUT LAKE 1NE N/A 50 45 83 CALM 30.15R  
#TROUT LAKE 1E N/A 48 44 86 CALM 30.15S  

 
 
WAZ521-231410-  
SIMCOE HIGHLANDS  
 
CITY SKY/WX TMP DP RH WIND PRES REMARKS
 
#CENTERVILLE 1SWN/A 50 45 83 W5 30.12R  
#GOLDENDALE 1NE N/A 45 37 73 N2 N/A  
#GOLDENDALE 4W N/A 47 46 96 CALM 30.22R  
#GOODNOE HILLS N/A 56 50 80 NW12 30.09R  
#LYLE 6NE N/A 55 49 80 W7 30.13R  

 
 
WAZ026-231410-  
KITTITAS VALLEY  
 
CITY SKY/WX TMP DP RH WIND PRES REMARKS
 
ELLENSBURG AP PTCLDY 57 47 69 NW13 30.17R  
#ELLENSBURG CWU N/A 56 47 72 NW5 30.08R  
#ELLENSBURG 3NE N/A 56 49 77 N6 30.16S  
#ELLENSBURG N/A 59 51 75 W2 N/A  
#KITTITAS 4N N/A 50 42 74 E2 30.18S  
#KITTITAS 3S N/A 49 46 89 CALM 30.11S  
#THORP 6N N/A 52 47 83 N14 30.13S  

 
 
WAZ027-231410-  
YAKIMA VALLEY  
 
CITY SKY/WX TMP DP RH WIND PRES REMARKS
 
SUNNYSIDE AP MOCLDY 47 45 93 CALM 30.17R  
YAKIMA AIRPORT PTCLDY 49 41 74 W7 30.18R  
YAKIMA-VAGABOND N/A 53 43 69 E5 30.16S  
#DONALD 2NE N/A 61 31 32 N1 30.14S  
#GRANDVIEW N/A 53 47 80 CALM 30.15R  
#MABTON N/A 54 49 83 CALM 30.16R  
#NACHES 2SW N/A 57 48 72 W7 30.18R  
#TERRACE HTS N/A 57 46 67 CALM 30.09R  
#WEST VALLEY N/A 50 43 77 CALM 30.12R  
#W YAKIMA N/A 56 47 72 CALM 30.13R  
#WHITE SWAN 5E N/A 47 43 86 CALM 30.14R  
#WILEY CITY 3W N/A 49 39 68 CALM 30.15R  

 
 
WAZ028-231410-  
LOWER COLUMBIA BASIN...WASHINGTON  
 
CITY SKY/WX TMP DP RH WIND PRES REMARKS
 
PASCO MOCLDY 62 50 65 S6 30.17R  
PROSSER AWOS N/A 52 50 93 CALM 30.20R  
RICHLAND AWOS CLOUDY 59 51 75 CALM 30.16S  
#BENTON CITY N/A 55 49 80 NW2 30.04R  
#CONNELL 5N N/A 50 46 86 CALM 30.12R  
#CONNELL 5NW N/A 54 48 80 CALM 30.08R  
#ELTOPIA 6NW N/A 57 49 75 CALM 29.12R  
#KAHLOTUS N/A 57 49 75 W13 30.11R  
#KENNEWICK 3S N/A 57 51 80 N2 30.13S  
#PATERSON N/A 58 53 83 CALM 30.14R  
#SAGEMOOR 2W N/A 56 51 83 CALM 29.98R  
#TOUCHET 2S N/A 61 49 65 SW12 30.12R  
#WEST PASCO N/A 58 49 72 E1 30.16R  

 
 
WAZ029-231410-  
FOOTHILLS OF THE BLUES...WASHINGTON  
 
CITY SKY/WX TMP DP RH WIND PRES REMARKS
 
WALLA WALLA AP MOCLDY 58 47 67 S8 30.19R  
#CLYDE 6NW N/A 53 47 80 CALM 30.13R  
#LOWDEN 2SE N/A 53 50 89 CALM 30.14R  
#PLEASANT VIEW 1N/A 53 47 80 S6 30.14R  
#PRESCOTT N/A 53 48 83 CALM 30.14R  
#WHITMAN COLLEGEN/A 59 49 69 CALM 30.19R  
#WAITSBURG 5S N/A 55 48 77 SE6 30.22R  
#WAITSBURG 8N N/A 53 28 38 S2 30.16R  
#WALLA WALLA U N/A 60 50 69 CALM 30.15R  
#WHITMAN MISSIONN/A 55 51 86 CALM 30.17R  

 
 
WAZ030-231410-  
BLUE MOUNTAINS...WASHINGTON  
 
CITY SKY/WX TMP DP RH WIND PRES REMARKS
 
#DIXIE 5SE N/A 53 46 77 S7 30.14R  

 
 
ORZ009-041-WAZ024-231410-  
COLUMBIA RIVER GORGE  
 
CITY SKY/WX TMP DP RH WIND PRES REMARKS
 
HOOD RIVER AP CLOUDY 61 50 67 NW7 30.21S  
THE DALLES AP CLEAR 61 50 67 NW8 30.18S  
#ARLINGTON AIRPON/A 56 49 77 W3 30.16R  
#LYLE N/A 62 52 70 N7 30.19S  
#MARYHILL 2W N/A 61 50 67 S2 N/A  
#MOSIER 1S N/A 59 40 49 NW6 30.18S  
#MURDOCK N/A 63 52 67 NW12 30.14R  
#RUFUS DOT N/A 64 50 60 W12 N/A  
#SMITHVILLE N/A 62 52 70 W10 30.20R  
 

 
 
ORZ510-231410-  
NORTH CENTRAL OREGON  
 
CITY SKY/WX TMP DP RH WIND PRES REMARKS
 
#ANTELOPE N/A 44 40 86 CALM 30.03R  
#CHENOWITH 1W N/A 54 49 83 W25 N/A  
#COW CYN RST AREN/A 52 N/A N/A S1 N/A  
#DUFUR 9E N/A 53 47 80 CALM 30.20R  
#GRASS VALLEY 1SN/A 46 43 89 CALM 30.14R  
#KENT DOT N/A 47 41 79 N8 N/A  
#SHANIKO 5WSW N/A 51 39 63 N2 N/A  
#SHANIKO 4NW N/A 50 47 89 SW2 30.22F  
#TYGH VALLEY 2NEN/A 48 44 86 CALM 30.15S  
#WAPANITIA AIRPON/A 48 43 83 CALM 30.16S  
#WASCO 5NE N/A 56 49 77 W10 30.13R  

 
 
ORZ511-231410-  
CENTRAL OREGON  
 
CITY SKY/WX TMP DP RH WIND PRES REMARKS
 
BEND AIRPORT CLEAR 50 41 71 SW8 30.24R  
MADRAS AIRPORT CLEAR 50 46 86 S5 30.24S  
PRINEVILLE AP CLEAR 43 41 93 CALM 30.25R  
REDMOND AIRPORT CLEAR 43 38 82 CALM 30.24R  
#ASHWOOD SCHOOL N/A 46 41 83 CALM 30.19R  
#BEND 1SW N/A 45 40 82 N1 N/A  
#BEND-AWBREY N/A 50 42 74 S3 30.25R  
#CULVER N/A 47 42 83 CALM 30.09R  
#CULVER 8W N/A 44 41 89 CALM 30.20R  
#LAKE BILLY CHINN/A 49 N/A N/A CALM 30.26R  
#MADRAS 4S N/A 46 25 43 S7 30.28R  
#POWELL BUTTE 3EN/A 43 41 93 E2 N/A  
#POWELL BUTTE N/A 47 40 76 SE1 30.16R  
#PRINEVILLE 3N N/A 43 40 89 N1 30.21R  
#WARM SPRINGS N/A 50 44 80 CALM 30.19R  
 

 
 
 
ORZ509-231410-  
EAST SLOPES OF OREGON CASCADES  
 
CITY SKY/WX TMP DP RH WIND PRES REMARKS
 
SISTERS AWOS N/A 37 34 89 CALM 30.20R  
#CAMP SHERMAN N/A 41 38 89 CALM 30.24R  
#LA PINE DOT N/A 37 35 92 SW3 N/A  
#LA PINE 4NW N/A 32 28 85 CALM 30.21R  
#LAVA BUTTE DOT N/A 40 38 92 CALM N/A  
#SISTERS AIRPOR N/A 37 36 96 CALM 30.17S  
#SISTERS ODOT N/A 38 N/A N/A CALM N/A  
#SISTERS 3N N/A 38 30 73 CALM 30.20S  
#SUNRIVER N/A 37 34 89 CALM 30.16R  
#SUTTLE LK DOT N/A 45 44 96 N7 N/A  
#TUMALO 3W N/A 49 36 61 SW6 30.01S  
#WANOGA BUTTE D N/A 50 27 41 CALM N/A  
 

 
 
ORZ044-231410-  
LOWER COLUMBIA BASIN...OREGON  
 
CITY SKY/WX TMP DP RH WIND PRES REMARKS
 
HERMISTON MOCLDY 59 48 67 SW7 30.17R  
#BOARDMAN 8SW N/A 56 51 83 SW6 30.15R  
#ECHO 8SW N/A 59 47 64 W5 30.18R  
#I-84 EX 198 DOTN/A 59 49 69 E12 N/A  
#UMATILLA N/A 56 47 72 CALM 30.09S  

 
 
ORZ507-231410-  
NORTHERN FOOTHILLS OF THE BLUES  
 
CITY SKY/WX TMP DP RH WIND PRES REMARKS
 
PENDLETON AIRPT MOCLDY 57 46 67 CALM 30.20R  
#ADAMS 3WNW N/A 50 45 83 CALM 30.14R  
#ATHENA N/A 51 46 83 CALM 30.17R  
#CAYUSE N/A 53 47 80 E2 30.15R  
#HELIX SCHOOL N/A 51 45 80 CALM 30.14R  
#HELIX 3N N/A 52 46 80 S7 30.16R  
#HOLDMAN 5SE N/A 55 47 74 CALM 30.18R  
#HOLDMAN 6E N/A 55 47 74 NW2 29.96R  
#M-F GROVE ELEM N/A 56 46 69 CALM 30.17R  
#M-FREEWATER 5SEN/A 56 48 74 CALM 30.19R  
#PENDLETON DNTN N/A 54 42 64 CALM 30.22R  
#PDT AQUATIC CTRN/A 54 40 59 CALM 30.03S  
#PDT SUNRIDGE N/A 49 45 86 CALM 30.21R  
#PENDLETON 7NW N/A 51 43 74 CALM 32.29S  
#PILOT ROCK 1S N/A 51 40 66 CALM 30.21R  
#PILOT ROCK N/A 51 41 68 SW2 30.21R  
#TUTUILLA N/A 48 44 86 CALM 30.17R  
#UMAPINE 2E N/A 57 50 77 SE2 30.16R  
#WESTON SCHOOL N/A 55 45 69 N1 30.05R  
 

 
 
ORZ508-231410-  
SOUTHERN FOOTHILLS OF THE BLUES  
 
CITY SKY/WX TMP DP RH WIND PRES REMARKS
 
LEXINGTON PTCLDY 55 45 69 SE5 30.23S  
#CONDON 5W N/A 51 42 71 W10 30.19S  
#HEPPNER EOC N/A 50 43 77 SE7 30.09R  
#HEPPNER 4NE N/A 51 43 74 SW3 30.14R  
#LEXINGTON 2SE N/A 52 44 74 CALM 30.18R  
#RUGGS 5NE N/A 51 44 77 W1 30.40R  
#RUGGS 2SW N/A 50 43 77 SW7 30.15R  
 

 
 
ORZ502-503-231410-  
BLUE MOUNTAINS  
 
CITY SKY/WX TMP DP RH WIND PRES REMARKS
 
MEACHAM PTCLDY 39 35 85 CALM 30.24R  
#BATTLE MTN DOT N/A 43 41 93 CALM N/A  
#CUTSFORTH PARK N/A 39 36 89 CALM 30.01R  
#GREENHORN 9SW N/A 37 36 96 CALM 30.22R  
#HARDMAN 10S N/A 61 34 36 N5 30.22S  
#HEPPNER 15SE N/A 41 36 82 CALM 25.74R  
#LADD CYN SMT N/A 45 43 93 CALM N/A  
#LADD CREEK ODOTN/A 47 43 86 W1 N/A  
#LONG CREEK HS N/A 43 43 100 CALM N/A  
#N POWDER DOT N/A 48 45 89 N3 N/A  
#PIKES PEAK N/A 52 46 80 SW12 27.99S  
#TOLLGATE N/A 45 44 96 CALM 30.09R  
#TROY SCHOOL N/A 55 48 77 CALM 29.96R  
#UKIAH N/A 36 34 92 CALM 30.09R  
#WESTON 4E N/A 49 45 86 E1 30.09R  

 
 
ORZ505-231410-  
JOHN DAY BASIN  
 
CITY SKY/WX TMP DP RH WIND PRES REMARKS
 
JOHN DAY CLEAR 51 44 77 CALM 30.25R  
#DAYVILLE SCHOOLN/A 53 42 66 CALM 30.18R  
#MITCHELL N/A 47 44 89 CALM 30.37S  
#MITCHELL 8NW N/A 53 42 66 CALM 30.31R  
#MONUMENT HS N/A 49 43 80 CALM 30.15R  
#MT. VERNON 5SE N/A 47 42 83 CALM 30.20R  
#SPRAY SCHOOL N/A 47 N/A N/A CALM N/A  

 
 
ORZ506-231410-  
OCHOCO AND JOHN DAY HIGHLANDS  
 
CITY SKY/WX TMP DP RH WIND PRES REMARKS
 
#BUCK CREEK DOT N/A 50 40 68 W2 N/A  
#HORSE RIDGE DO N/A 33 30 89 CALM N/A  
#PAULINA SCHOOL N/A 44 37 76 CALM N/A  
#PINE MTN OBS N/A 48 29 47 NW3 N/A  
#PRAIRIE CITY N/A 42 39 89 CALM 30.39S  
#SENECA N/A 41 N/A N/A CALM N/A  
#SENECA 9NW N/A 37 34 89 CALM 30.06R  

 
 
ORZ049-231410-  
GRANDE RONDE VALLEY  
 
CITY SKY/WX TMP DP RH WIND PRES REMARKS
 
LA GRANDE PTCLDY 52 37 56 N8 30.21R  
#COVE N/A 48 46 93 E1 30.22R  
#COVE SCHOOL N/A 49 45 86 CALM 30.22R  
#COVE 6NW N/A 46 41 83 CALM 30.10R  
#ELGIN 3N N/A 46 41 83 CALM 30.18R  
#ELGIN 1E N/A 47 41 79 CALM N/A  
#ISLAND CITY 4N N/A 54 52 93 CALM 30.26S  
#LADD CYN DOT N/A 52 45 77 SE9 N/A  
#UNION 1S N/A 49 44 83 CALM 30.01R  

 
 
ORZ050-231410-  
WALLOWA COUNTY  
 
CITY SKY/WX TMP DP RH WIND PRES REMARKS
 
#ENTERPRISE AP N/A 49 29 46 CALM 30.14R  
#ENTERPRISE HS N/A 42 39 89 CALM 30.22R  
#IMNAHA SCHOOL N/A 55 46 72 N2 30.17R  
#JOSEPH 3N N/A 40 35 82 CALM 30.22R  
#JOSEPH 3W N/A 47 41 79 SW2 30.06R  
#LOSTINE N/A 42 38 86 CALM 29.93R  
#LOSTINE 3SE N/A 43 38 82 S1 30.20R  
#MT HOWARD 8000 N/A 42 34 73 CALM 30.33R  
#PROMISE 1S N/A 48 44 86 CALM 30.21R  
#WALLOWA SCHOOL N/A 44 41 89 CALM 30.17R  
 

 
 
CLICK HERE TO GO TO PREVIOUS BULLETINS.

The Nexlab OR Page
The Nexlab WA Page Main Text Page